Regional Weather Roundup
Issued by NWS Upton, NY

Current Version | Previous Version | Text Only | Print | Product List | Glossary On
Versions: 1 2 3 4 5 6 7 8 9 10 11 12 13 14 15 16 17 18 19 20 21 22 23 24 25 26 27
000 ASUS41 KOKX 220508 RWROKX Regional Weather Roundup National Weather Service New York NY 1200 AM EST MON JAN 22 2018 Note: "FAIR" indicates few or no clouds below 12,000 feet with no significant weather and/or obstructions to visibility. NYZ071-072-176-178-NJZ106-104-220600- New York City Metro Area CITY SKY/WX TMP DP RH WIND PRES REMARKS Central Park CLOUDY 50 36 58 CALM 30.18F Bronx Bot Gard N/A 45 32 61 N1 30.17S Bronx Lehman C N/A 46 34 61 E3 N/A LaGuardia Arpt CLOUDY 46 35 65 E3 30.16S Queens College N/A 46 37 71 S2 N/A Kennedy Intl CLOUDY 43 38 82 CALM 30.17F Breezy Point N/A 39 N/A N/A S3 N/A Brooklyn Coll N/A 48 37 66 SE2 N/A Staten Island N/A 46 36 66 SE3 N/A Newark/Liberty CLOUDY 46 35 65 CALM 30.16F Teterboro CLOUDY 46 34 62 CALM 30.16S $$ NYZ177-179-078>081-220600- Long Island New York CITY SKY/WX TMP DP RH WIND PRES REMARKS Jones Beach N/A 41 N/A N/A S5 N/A Wantagh N/A 41 36 81 NE2 N/A Matinecock Pt N/A 36 N/A N/A E6 N/A WCI 31 Farmingdale CLOUDY 40 34 79 NE3 30.18S MacArthur/ISP CLOUDY 42 34 73 CALM 30.18S Shirley LGT RAIN 38 33 82 CALM 30.19F Mt Sinai Harb N/A N/A N/A N/A S5 N/A Westhampton CLOUDY 36 30 79 CALM 30.21S East Hampton CLOUDY 34 31 88 CALM 30.19F Southold N/A 37 32 81 SE1 N/A Montauk N/A 40 36 86 CALM 30.21S $$ NYZ052-065-067-220600- Hudson Valley CITY SKY/WX TMP DP RH WIND PRES REMARKS White Plains CLOUDY 39 33 79 CALM 30.15F Larchmont Harb N/A 39 N/A N/A NE9 N/A WCI 33 Croton On Huds N/A 37 N/A N/A MISG N/A Somers N/A 37 32 81 NE1 N/A Brewster N/A 36 32 87 CALM N/A Newburgh DRIZZLE 37 36 93 CALM 30.16F Montgomery CLOUDY 34 33 96 CALM 30.14F FOG Otisville N/A 36 36 100 N1 N/A Warwick N/A 36 34 93 W1 N/A Suffern N/A 41 32 70 E1 N/A Poughkeepsie CLOUDY 34 32 92 CALM 30.16F FOG Albany LGTSLEET 33 28 81 CALM 30.16F $$ NJZ001-105-106-008-010-013-015-019>022-104-220600- New Jersey CITY SKY/WX TMP DP RH WIND PRES REMARKS Newark/Liberty CLOUDY 46 35 65 CALM 30.16F Teterboro CLOUDY 46 34 62 CALM 30.16S Caldwell CLOUDY 42 36 79 CALM 30.16F Somerville CLOUDY 40 35 83 CALM 30.13F Linden CLOUDY 45 34 66 CALM 30.15F Perth Amboy N/A 43 N/A N/A E1 N/A Sussex CLOUDY 37 33 85 CALM 30.15S Andover N/A 35 33 92 CALM 30.14S Trenton CLOUDY 46 37 71 SE3 30.14F Millville CLOUDY 46 36 68 VRB3 30.15F Atlantic City CLOUDY 47 36 65 S6 30.16F Wrightstown CLOUDY 46 35 66 CALM 30.12F Toms River CLOUDY 46 34 62 S6 30.17F Belmar CLOUDY 46 36 68 S5 30.17F $$ PAZ047>061-062-071-220600- Eastern Pennsylvania CITY SKY/WX TMP DP RH WIND PRES REMARKS Philadelphia MOCLDY 45 35 68 S3 30.14F Allentown CLOUDY 43 36 76 NE3 30.14S Scranton CLOUDY 36 36 100 CALM 30.11F FOG $$ CTZ002-004>006-009-010-012-RIZ004-006-007-MAZ004-011-015-220600- Southern New England In CT CITY SKY/WX TMP DP RH WIND PRES REMARKS Bradley Intl CLOUDY 35 30 82 CALM 30.18S Hartford CLOUDY 34 31 88 CALM 30.19S Danbury LGT RAIN 36 33 89 CALM 30.18S Wtrbury/Oxford LGT RAIN 37 31 78 CALM 30.17S Norwalk Harbor N/A 36 N/A N/A NE6 N/A WCI 31 Bridgeport LGT RAIN 37 32 82 CALM 30.19S Meriden LGT RAIN 33 30 88 CALM 30.19R New Haven LGT RAIN 37 32 82 CALM 30.19R Chester CLOUDY 39 30 70 CALM 30.18R Groton CLOUDY 34 31 88 CALM 30.20S Willimantic MIX PCPN 32 29 88 NE3 30.19S In RI CITY SKY/WX TMP DP RH WIND PRES REMARKS Providence CLOUDY 33 30 88 SW3 30.21R Block Island CLOUDY 36 34 92 SW6 30.21S WCI 31 Westerly CLOUDY 33 31 92 E3 30.20F In MA CITY SKY/WX TMP DP RH WIND PRES REMARKS Boston MOCLDY 36 30 79 S5 30.20R WCI 32 Worcester CLOUDY 34 27 75 SW5 30.15F WCI 30 Westfield CLOUDY 33 31 92 CALM 30.17F Provincetown FAIR 33 30 88 S7 30.22S WCI 27 Nantucket FAIR 31 29 92 SW3 30.21F $$ ANZ330-335-338-340-345-350-353-355-220600- Coastal Marine Observations STATION/POSITION TIME SKY/WX TEMP WIND PRES VSBY WAVE AIR SEA DIR/SP/G HT/PER (UTC) (F) (DEG/KT/KT) (MB) (MI) (FT/S) NY Harb Entrance 0350 42 39 190/ 6/ 6 1021.7 2/ 6 20 S Fire Island 0350 43 41 210/ 8/ 10 1022.1 2/ 7 15 E Barnegat Li 0430 42 N/A 2/ 6 Hudson Canyon 0350 49 50 240/ 8/ 8 1022.6 2/ 7 Kings Point 0442 38 34 70/ 3/ 6 1022.6 Execution Rocks NOT AVBL Western LI Sound NOT AVBL Central LI Sound 0430 37 100/ 2/ 4 N/A 0 Robbins Reef 0442 45 160/ 6/ 6 1021.8 $$ >>>>>>>>>>>>>>>>>>>>>>>>>>>> KEY <<<<<<<<<<<<<<<<<<<<<<<<<<< > < > SKY/WX - Sky Condition/Present Weather < > TMP - Temperature in Fahrenheit < > DP - Dew Point in Fahrenheit < > RH - Relative Humidity in Percent < > WIND - Direction (from) and Speed in MPH < > PRES - Mean Sea Level Pressure (inches of Hg) < > WCI - Wind Chill Index < > VSB - Visibility in Miles < > HX - Heat Index < > TC - Temperature in Celsius < > VRB - Varibale Wind Direction < > < >>>>>>>>>>>>>>>>>>>>>>>>>>>> KEY <<<<<<<<<<<<<<<<<<<<<<<<<<<

USA.gov is the U.S. government's official web portal to all federal, state and local government web resources and services.